Regional Weather Roundup
Issued by NWS

Home | Current Version | Previous Version | Graphics & Text | Print | Product List | Glossary On
Versions: 1 2 3 4 5 6 7 8 9 10 11 12 13 14 15 16 17 18 19 20 21 22 23 24 25 26 27 28 29 30 31 32 33 34 35 36 37 38 39 40 41 42 43 44 45 46 47 48 49 50
000
ASUS44 KMEG 061100
RWRTN
TENNESSEE HOURLY STATE WEATHER ROUNDUP
NATIONAL WEATHER SERVICE MEMPHIS TN
600 AM CDT FRI MAY 06 2016

TNZ002-004-019-021-049-052-054-088>092-061200-
WEST TENNESSEE

CITY           SKY/WX    TMP DP  RH WIND       PRES   REMARKS
MEMPHIS INTL   PTCLDY    50  44  80 CALM      30.06S
NWS MEMPHIS      N/A     46 N/A N/A MISG        N/A
JACKSON        CLEAR     42  40  92 CALM      30.05R
DYERSBURG      CLEAR     48  45  87 W6        30.06R
UNION CITY     CLEAR     46  45  93 CALM      30.03R
LEXINGTON      CLEAR     39  39 100 CALM      30.02R
$$

TNZ008-025-027-028-033-062-065-066-061200-
NORTH MIDDLE TENNESSEE

CITY           SKY/WX    TMP DP  RH WIND       PRES   REMARKS
NASHVILLE      PTCLDY    47  43  86 W5        29.99R
CLARKSVILLE    CLEAR     44  42  93 NW5       30.01R
COOKEVILLE     CLEAR     37  37 100 CALM      29.95R
CROSSVILLE     CLEAR     45  42  89 NW6       29.94R
$$

TNZ061-075-076-078-094-096-097-061200-
SOUTH MIDDLE TENNESSEE

CITY           SKY/WX    TMP DP  RH WIND       PRES   REMARKS
TULLAHOMA      CLEAR     41  41 100 CALM      29.99R
WINCHESTER     CLOUDY    37  37 100 CALM      29.99R VSB 1/2
MCMINNVILLE      N/A     41  41 100 CALM      29.97R VSB 1/2
COLUMBIA       CLEAR    N/A N/A N/A CALM      29.99R
SHELBYVILLE    CLEAR     39  39 100 CALM      30.00R
$$

TNZ017-018-042-046-047-061200-
NORTHEAST TENNESSEE

CITY           SKY/WX    TMP DP  RH WIND       PRES   REMARKS
TRI CITIES     CLOUDY    49  43  80 W6        29.86R
$$

TNZ012-013-036-069-073-074-061200-
CENTRAL EAST TENNESSEE

CITY           SKY/WX    TMP DP  RH WIND       PRES   REMARKS
KNOXVILLE      PTCLDY    45  43  93 SW3       29.92R
OAK RIDGE      CLEAR     43  41  93 CALM      29.93R
GATLINBURG     PTSUNNY   45  43  93 CALM      29.91R
$$

TNZ083-085-099-061200-
SOUTHEAST TENNESSEE

CITY           SKY/WX    TMP DP  RH WIND       PRES   REMARKS
CHATTANOOGA    PTCLDY    44  41  89 CALM      29.94R
$$

SKY/WX REPORTED AS FAIR MEANS FEW OR NO CLOUDS BELOW
12 THOUSAND FEET.





USA.gov is the U.S. government's official web portal to all federal, state and local government web resources and services.